SOYUZ-MS 15

Last updated on Fri Apr 17 2020 00:02:11 GMT+0000 (Coordinated Universal Time)

1 44550U 19064A 20107.50443462 .00001412 00000-0 34120-4 0 9998 2 44550 51.6447 293.7422 0003674 120.6170 340.3516 15.48699100222453
UTC large
Height (km)
Speed (km/s)
/
Latitude / Longitude
Inclination (degrees)
Orbital Period (minutes)
Azimuth
Elevation
Range (km)
Doppler Factor

Next 0 passes for location: London (51.5072 / 0.1276)

Sorry there are no passes over London.